Location: Nelson
(47.1935°N, 121.0537°W)
Time: 07:31:44
(UTC+00:00)

BlueWalker 3 - Pass Details

Date: 30 November 2022
Orbit: 499 x 517 km, 53.2° (Epoch: 27 January)

Event Time Altitude Azimuth Distance (km) Brightness Sun altitude
Rises 00:29:22 0° 240° (WSW) 2,633 9.4 -2.6°
Reaches altitude 10° 00:31:34 10° 240° (WSW) 1,745 6.8 -2.9°
Maximum altitude 00:35:32 88° 330° (NNW) 521 2.0 -3.5°
Drops below altitude 10° 00:39:29 10° 61° (ENE) 1,738 4.0 -4.1°
Enters shadow 00:40:26 - 61° (ENE) 2,125 4.4 -4.3°
